Temp
-16 -16 -17 -17 -17 -17 -17 -17 -17 -16 -16 -16 -17 -17 -16 -16 -16 -16 -16 -16 -15 -15 -15 -15 -15 -15 -15 -15 -15 -15 -15 -15 -15 -16 -16 -17 -16 -16 -17 -17 -19 -19 -19 -20 -21 -21 -23 -22 -23 -24 -25 -26 -26 -26
-17 -16 -16 -16 -17 -16 -16 -17 -17 -16 -16 -15 -15 -15 -15 -15 -15 -15 -15 -15 -15 -15 -15 -15 -15 -15 -15 -15 -15 -15 -16 -16 -16 -17 -17 -17 -17 -18 -18 -18 -19 -20 -21 -21 -23 -23 -27 -25 -25 -25 -26 -26 -27 -27
-18 -18 -18 -18 -18 -17 -17 -17 -17 -17 -17 -17 -16 -16 -16 -16 -16 -15 -16 -16 -16 -15 -16 -16 -16 -16 -16 -16 -16 -16 -17 -18 -18 -18 -19 -19 -19 -20 -20 -20 -20 -22 -22 -23 -24 -25 -25 -27 -27 -28 -28 -28 -28 -29
-18 -18 -18 -18 -18 -18 -18 -18 -18 -17 -17 -17 -17 -17 -17 -17 -17 -16 -16 -16 -16 -16 -16 -16 -17 -17 -17 -17 -17 -18 -18 -19 -19 -20 -20 -21 -21 -21 -20 -21 -21 -24 -24 -25 -25 -26 -27 -27 -28 -29 -29 -29 -30 -30
-19 -19 -19 -19 -19 -19 -19 -18 -18 -18 -18 -18 -18 -17 -17 -17 -17 -17 -17 -17 -17 -17 -17 -18 -18 -18 -19 -19 -20 -20 -21 -21 -21 -21 -21 -22 -22 -22 -23 -23 -24 -24 -25 -26 -26 -27 -28 -28 -29 -29 -30 -30 -30 -30
-20 -20 -20 -20 -20 -20 -20 -20 -20 -20 -19 -19 -19 -19 -18 -18 -18 -18 -18 -18 -18 -18 -18 -19 -20 -20 -21 -22 -22 -23 -23 -23 -23 -23 -23 -23 -23 -23 -24 -24 -24 -25 -26 -27 -28 -28 -28 -29 -29 -29 -30 -30 -30 -30
-22 -21 -22 -21 -21 -21 -21 -21 -21 -21 -20 -20 -19 -19 -19 -19 -19 -19 -18 -18 -18 -18 -19 -20 -23 -24 -24 -24 -24 -24 -24 -24 -24 -24 -24 -25 -25 -25 -25 -25 -26 -27 -28 -28 -29 -28 -29 -29 -29 -29 -29 -30 -31 -31
-22 -22 -22 -22 -22 -22 -23 -23 -22 -22 -22 -21 -21 -21 -20 -20 -20 -20 -21 -21 -21 -22 -23 -24 -25 -25 -25 -25 -25 -25 -25 -25 -25 -26 -26 -26 -26 -26 -26 -27 -28 -28 -28 -29 -29 -29 -29 -30 -30 -30 -30 -30 -31 -32
-23 -23 -23 -23 -23 -23 -23 -23 -23 -23 -23 -23 -23 -23 -23 -22 -22 -23 -23 -25 -26 -26 -26 -27 -27 -27 -27 -27 -27 -27 -27 -27 -27 -27 -27 -27 -27 -27 -28 -28 -28 -29 -29 -29 -29 -29 -29 -30 -31 -31 -31 -31 -32 -32
-23 -23 -23 -23 -23 -23 -23 -24 -24 -24 -24 -24 -24 -24 -24 -24 -24 -25 -27 -27 -28 -28 -29 -28 -28 -28 -28 -28 -28 -28 -28 -28 -28 -28 -28 -28 -28 -28 -29 -29 -30 -30 -30 -30 -30 -31 -31 -32 -32 -32 -32 -32 -32 -33
-24 -24 -24 -24 -24 -24 -24 -24 -24 -24 -25 -25 -25 -25 -25 -25 -26 -27 -28 -29 -29 -29 -29 -29 -29 -29 -29 -29 -29 -29 -29 -29 -29 -29 -29 -29 -29 -29 -30 -31 -31 -31 -31 -31 -31 -32 -32 -32 -32 -32 -32 -32 -33 -33
-24 -24 -24 -24 -24 -24 -24 -25 -25 -25 -25 -26 -26 -26 -27 -28 -28 -29 -29 -29 -29 -29 -29 -30 -29 -30 -30 -30 -30 -30 -30 -30 -30 -30 -30 -30 -30 -31 -31 -32 -32 -31 -31 -31 -32 -32 -32 -32 -32 -32 -32 -32 -32 -33
-24 -24 -24 -24 -25 -25 -25 -26 -26 -26 -26 -26 -27 -28 -29 -29 -29 -29 -29 -29 -29 -29 -29 -30 -30 -30 -30 -30 -30 -30 -30 -30 -30 -31 -31 -31 -31 -32 -31 -32 -32 -32 -32 -32 -32 -32 -32 -32 -32 -33 -33 -33 -33 -33
-25 -25 -25 -25 -25 -26 -26 -26 -26 -26 -26 -27 -28 -29 -29 -29 -29 -29 -29 -29 -29 -30 -30 -30 -30 -31 -31 -31 -31 -31 -31 -31 -31 -32 -32 -32 -32 -33 -33 -33 -33 -33 -33 -33 -33 -33 -33 -32 -33 -33 -33 -33 -33 -33
-25 -26 -25 -26 -26 -26 -26 -26 -26 -26 -27 -27 -29 -30 -30 -30 -30 -29 -30 -30 -30 -30 -30 -31 -31 -31 -31 -32 -32 -32 -32 -32 -32 -32 -32 -33 -33 -33 -33 -33 -33 -33 -33 -33 -33 -33 -33 -33 -33 -34 -34 -34 -34 -34
-26 -26 -26 -26 -26 -26 -26 -27 -27 -27 -27 -27 -29 -30 -30 -30 -30 -30 -30 -30 -30 -30 -30 -31 -31 -31 -31 -32 -32 -32 -32 -32 -33 -33 -33 -33 -33 -33 -34 -34 -34 -34 -34 -34 -33 -33 -33 -34 -34 -34 -34 -34 -34 -34
-26 -26 -27 -27 -27 -27 -27 -27 -27 -27 -27 -28 -29 -30 -30 -30 -30 -30 -30 -30 -30 -30 -31 -32 -32 -32 -32 -32 -33 -33 -33 -33 -33 -33 -33 -33 -34 -34 -34 -34 -35 -35 -34 -34 -34 -34 -34 -34 -35 -35 -35 -35 -34 -34
-27 -27 -27 -27 -27 -27 -27 -27 -27 -27 -28 -29 -29 -30 -30 -30 -30 -31 -31 -31 -31 -31 -32 -32 -33 -32 -33 -33 -34 -34 -34 -34 -34 -34 -34 -34 -35 -35 -35 -35 -35 -35 -35 -36 -36 -36 -35 -35 -35 -35 -34 -34 -35 -35
-27 -27 -27 -28 -28 -27 -27 -27 -27 -28 -28 -29 -29 -30 -30 -30 -30 -31 -32 -31 -32 -32 -33 -33 -33 -32 -33 -34 -34 -34 -34 -34 -35 -35 -35 -35 -36 -36 -37 -37 -37 -37 -37 -37 -37 -37 -37 -36 -36 -36 -36 -36 -36 -36
-28 -28 -28 -28 -28 -28 -28 -28 -28 -29 -29 -29 -30 -30 -30 -30 -31 -31 -32 -33 -33 -34 -34 -34 -34 -34 -35 -35 -35 -35 -35 -36 -36 -36 -37 -36 -37 -37 -37 -37 -37 -37 -38 -38 -38 -38 -38 -38 -38 -38 -38 -37 -37 -37
-28 -28 -28 -28 -28 -29 -29 -29 -29 -30 -30 -30 -30 -30 -30 -31 -32 -33 -33 -34 -34 -34 -35 -35 -35 -35 -35 -36 -36 -36 -36 -36 -37 -37 -37 -37 -37 -37 -37 -38 -38 -38 -38 -38 -38 -38 -38 -38 -38 -38 -37 -37 -37 -37
-29 -29 -29 -28 -29 -29 -29 -29 -30 -30 -30 -30 -31 -32 -32 -32 -33 -34 -35 -35 -35 -35 -35 -36 -36 -36 -36 -36 -36 -36 -37 -37 -37 -37 -37 -38 -38 -38 -38 -38 -38 -38 -38 -38 -38 -38 -38 -38 -38 -38 -38 -38 -38 -38
-29 -29 -29 -29 -30 -30 -30 -30 -30 -30 -31 -31 -32 -33 -33 -34 -34 -35 -35 -35 -36 -36 -36 -36 -36 -36 -36 -37 -37 -37 -37 -37 -37 -37 -38 -38 -38 -38 -38 -38 -38 -39 -39 -39 -39 -39 -39 -39 -39 -39 -39 -39 -39 -39
-30 -30 -30 -31 -31 -31 -31 -31 -31 -32 -32 -34 -34 -34 -35 -35 -35 -36 -36 -36 -36 -36 -36 -37 -37 -37 -37 -37 -38 -38 -38 -37 -37 -38 -38 -38 -38 -38 -39 -39 -39 -39 -39 -40 -40 -40 -40 -40 -40 -40 -40 -40 -40 -39
-31 -31 -31 -31 -32 -33 -34 -35 -35 -36 -36 -36 -36 -36 -36 -36 -36 -36 -36 -37 -37 -37 -37 -37 -37 -38 -38 -38 -38 -38 -38 -38 -38 -38 -39 -39 -39 -39 -39 -39 -40 -40 -40 -41 -41 -41 -41 -41 -41 -41 -41 -41 -40 -40
-31 -32 -32 -33 -34 -34 -35 -35 -36 -36 -37 -37 -37 -37 -37 -37 -37 -37 -37 -38 -38 -38 -38 -38 -38 -38 -38 -38 -38 -38 -38 -39 -39 -39 -39 -39 -40 -40 -40 -41 -41 -41 -41 -41 -41 -41 -42 -42 -42 -42 -42 -42 -41 -41
-33 -34 -34 -35 -36 -36 -36 -37 -37 -37 -37 -37 -37 -37 -37 -37 -37 -37 -37 -37 -38 -38 -38 -39 -39 -39 -39 -39 -39 -40 -40 -40 -40 -40 -40 -41 -41 -41 -41 -41 -41 -42 -41 -42 -42 -42 -42 -42 -42 -43 -43 -43 -42 -42
-35 -35 -35 -36 -36 -36 -37 -37 -37 -37 -38 -38 -38 -38 -38 -38 -38 -38 -39 -39 -39 -40 -40 -40 -40 -41 -41 -41 -41 -41 -41 -41 -41 -41 -41 -42 -42 -42 -41 -42 -42 -42 -42 -42 -42 -42 -42 -42 -42 -43 -43 -43 -43 -43
-35 -35 -36 -36 -37 -37 -37 -37 -37 -37 -38 -38 -38 -38 -38 -38 -39 -39 -39 -40 -40 -40 -41 -41 -41 -41 -41 -42 -42 -42 -41 -41 -42 -42 -42 -42 -42 -42 -42 -42 -42 -42 -42 -42 -42 -42 -42 -42 -43 -43 -43 -44 -44 -43
-35 -36 -36 -36 -36 -37 -37 -37 -37 -37 -37 -37 -38 -38 -38 -39 -39 -39 -39 -40 -40 -40 -41 -41 -41 -41 -42 -41 -42 -42 -42 -42 -42 -42 -41 -42 -42 -42 -42 -42 -42 -42 -42 -42 -42 -42 -42 -42 -43 -43 -43 -43 -44 -43
-35 -35 -36 -36 -36 -37 -37 -37 -37 -37 -37 -38 -38 -38 -38 -39 -39 -39 -40 -40 -40 -40 -41 -41 -42 -42 -42 -42 -42 -42 -42 -43 -43 -42 -42 -42 -43 -43 -42 -43 -43 -43 -43 -43 -42 -42 -42 -42 -43 -43 -43 -43 -43 -43
-35 -35 -35 -36 -36 -37 -37 -37 -38 -38 -38 -38 -38 -39 -39 -39 -40 -40 -40 -40 -41 -41 -42 -42 -42 -42 -42 -42 -42 -42 -42 -42 -43 -43 -43 -43 -43 -43 -43 -43 -43 -43 -43 -43 -43 -42 -42 -43 -43 -43 -43 -43 -43 -43
-35 -35 -36 -36 -36 -36 -36 -37 -37 -37 -38 -38 -38 -39 -39 -39 -39 -40 -40 -40 -40 -41 -41 -42 -42 -42 -42 -42 -42 -43 -43 -43 -43 -43 -43 -43 -43 -43 -43 -43 -43 -43 -43 -43 -43 -43 -43 -43 -43 -43 -43 -43 -43 -43
Height
5715 5715 5717 5717 5718 5718 5717 5717 5716 5714 5711 5709 5707 5706 5704 5702 5699 5696 5692 5689 5687 5683 5678 5674 5670 5667 5662 5658 5654 5649 5644 5638 5632 5626 5622 5617 5612 5607 5602 5598 5588 5583 5576 5573 5565 5556 5549 5548 5540 5539 5533 5528 5521 5515
5709 5709 5710 5709 5709 5709 5707 5707 5705 5702 5700 5698 5696 5693 5690 5686 5683 5681 5678 5675 5671 5667 5664 5659 5655 5650 5644 5639 5635 5629 5624 5618 5611 5606 5602 5596 5593 5587 5585 5580 5571 5566 5561 5557 5549 5545 5533 5527 5526 5521 5515 5509 5503 5497
5705 5705 5705 5705 5704 5702 5701 5698 5696 5694 5691 5688 5685 5682 5678 5675 5672 5669 5664 5659 5655 5650 5645 5641 5636 5631 5625 5620 5614 5609 5603 5597 5593 5586 5580 5574 5570 5567 5562 5558 5550 5542 5539 5534 5530 5530 5518 5514 5511 5506 5499 5493 5488 5482
5699 5700 5699 5698 5696 5694 5692 5688 5685 5682 5679 5675 5672 5668 5664 5660 5657 5653 5648 5642 5637 5632 5626 5622 5616 5611 5605 5600 5595 5588 5583 5576 5571 5565 5559 5554 5549 5546 5544 5538 5535 5527 5521 5520 5516 5512 5505 5499 5495 5490 5486 5480 5474 5469
5696 5696 5694 5691 5689 5686 5682 5679 5675 5671 5667 5663 5659 5655 5650 5645 5641 5636 5631 5625 5620 5617 5610 5603 5595 5589 5583 5578 5573 5568 5562 5557 5552 5547 5541 5537 5532 5528 5526 5521 5520 5513 5509 5506 5501 5498 5492 5487 5483 5478 5472 5466 5460 5454
5693 5691 5688 5685 5681 5677 5673 5669 5664 5660 5656 5651 5646 5641 5636 5631 5625 5621 5616 5611 5603 5596 5591 5584 5578 5570 5565 5559 5553 5548 5543 5539 5533 5529 5524 5520 5516 5514 5511 5507 5503 5501 5497 5493 5488 5484 5479 5475 5470 5466 5460 5454 5448 5444
5688 5685 5682 5678 5674 5669 5665 5660 5654 5648 5642 5637 5631 5625 5620 5614 5608 5603 5596 5588 5580 5574 5569 5563 5557 5552 5547 5542 5537 5533 5528 5524 5520 5516 5512 5507 5502 5500 5498 5495 5492 5489 5485 5480 5475 5471 5468 5463 5460 5455 5449 5444 5439 5434
5683 5680 5676 5672 5667 5662 5657 5651 5644 5637 5630 5624 5617 5611 5606 5600 5594 5589 5580 5573 5567 5560 5554 5547 5542 5538 5532 5527 5524 5518 5514 5509 5506 5501 5499 5496 5491 5488 5486 5484 5480 5477 5473 5470 5466 5461 5458 5455 5451 5446 5440 5435 5432 5426
5677 5674 5670 5664 5659 5653 5647 5642 5636 5630 5623 5615 5607 5599 5592 5585 5579 5571 5564 5558 5552 5548 5540 5535 5529 5525 5518 5514 5510 5507 5501 5498 5495 5491 5489 5486 5482 5478 5476 5472 5470 5466 5463 5459 5455 5452 5448 5445 5441 5436 5430 5427 5423 5418
5669 5664 5660 5655 5649 5644 5639 5633 5626 5619 5611 5603 5595 5586 5577 5571 5563 5558 5551 5545 5540 5537 5531 5527 5520 5515 5511 5504 5499 5497 5491 5488 5485 5482 5479 5476 5473 5470 5467 5464 5461 5457 5454 5451 5448 5445 5440 5437 5431 5427 5422 5418 5415 5411
5659 5655 5650 5645 5639 5634 5628 5622 5615 5608 5601 5592 5585 5578 5569 5561 5554 5546 5542 5537 5530 5525 5522 5517 5512 5506 5500 5495 5490 5485 5480 5477 5474 5472 5469 5467 5464 5461 5458 5455 5451 5448 5445 5441 5438 5434 5429 5425 5421 5417 5414 5408 5404 5400
5651 5647 5642 5636 5629 5624 5618 5612 5606 5599 5590 5581 5573 5563 5556 5549 5544 5539 5532 5528 5521 5517 5511 5507 5502 5497 5492 5486 5482 5478 5473 5469 5466 5462 5458 5456 5453 5450 5447 5443 5440 5437 5434 5431 5427 5423 5419 5414 5409 5405 5401 5396 5392 5388
5641 5635 5629 5623 5618 5614 5609 5601 5591 5584 5577 5567 5558 5551 5544 5539 5534 5528 5523 5518 5512 5506 5501 5496 5492 5488 5483 5478 5473 5469 5464 5461 5457 5453 5449 5446 5442 5439 5436 5432 5428 5424 5420 5416 5413 5409 5405 5401 5397 5392 5388 5383 5379 5375
5629 5623 5617 5611 5605 5599 5592 5587 5580 5572 5563 5553 5546 5540 5533 5527 5522 5516 5512 5507 5501 5495 5489 5485 5482 5476 5472 5467 5463 5458 5455 5451 5447 5443 5440 5436 5432 5428 5424 5421 5417 5413 5410 5405 5402 5398 5393 5389 5384 5379 5374 5371 5367 5363
5614 5607 5602 5597 5591 5587 5580 5572 5566 5559 5551 5544 5535 5527 5522 5515 5510 5505 5499 5493 5488 5484 5478 5473 5471 5466 5461 5456 5453 5449 5444 5440 5437 5433 5429 5426 5422 5418 5414 5409 5404 5400 5397 5393 5388 5384 5379 5375 5370 5366 5361 5358 5353 5349
5602 5595 5587 5583 5577 5572 5567 5559 5553 5547 5541 5534 5527 5518 5511 5505 5498 5491 5488 5483 5477 5472 5466 5461 5457 5452 5449 5445 5443 5439 5434 5431 5426 5422 5419 5414 5410 5405 5401 5395 5390 5386 5382 5378 5373 5369 5364 5360 5355 5352 5347 5343 5339 5334
5586 5580 5573 5567 5562 5557 5552 5547 5541 5534 5529 5522 5515 5507 5498 5493 5487 5480 5474 5470 5465 5461 5456 5449 5444 5440 5435 5431 5429 5425 5421 5417 5412 5408 5404 5400 5395 5390 5385 5380 5376 5371 5366 5361 5355 5350 5346 5341 5338 5334 5331 5327 5323 5318
5572 5567 5560 5553 5546 5542 5537 5530 5522 5518 5515 5510 5505 5498 5488 5480 5474 5467 5460 5455 5449 5445 5442 5437 5432 5427 5424 5421 5416 5413 5407 5404 5399 5394 5389 5384 5379 5374 5369 5364 5359 5354 5349 5343 5338 5334 5330 5325 5321 5317 5314 5310 5306 5302
5555 5550 5543 5534 5525 5521 5517 5512 5507 5501 5501 5495 5490 5484 5477 5471 5464 5454 5446 5441 5436 5430 5425 5421 5415 5413 5412 5407 5403 5399 5395 5390 5384 5379 5373 5368 5363 5357 5352 5348 5343 5338 5333 5328 5323 5318 5313 5308 5304 5300 5296 5293 5289 5285
5537 5531 5524 5517 5507 5499 5494 5492 5485 5479 5481 5479 5472 5466 5458 5453 5448 5440 5433 5427 5421 5415 5410 5405 5402 5399 5395 5391 5388 5383 5379 5374 5369 5364 5359 5354 5349 5343 5338 5333 5327 5322 5317 5312 5307 5301 5297 5293 5288 5283 5278 5274 5271 5268
5520 5514 5506 5498 5491 5482 5474 5472 5466 5463 5457 5455 5452 5444 5438 5435 5430 5423 5418 5412 5406 5402 5397 5394 5389 5385 5381 5377 5372 5367 5363 5358 5353 5349 5344 5338 5333 5327 5322 5317 5311 5305 5300 5294 5289 5283 5276 5271 5266 5262 5258 5253 5249 5246
5499 5490 5486 5480 5468 5460 5457 5457 5449 5445 5434 5435 5431 5424 5418 5415 5410 5405 5399 5394 5390 5387 5382 5377 5373 5368 5364 5360 5356 5351 5346 5341 5336 5330 5325 5320 5314 5309 5302 5296 5290 5285 5279 5272 5266 5259 5254 5248 5243 5239 5236 5232 5229 5225
5475 5469 5463 5456 5447 5441 5439 5438 5430 5426 5416 5413 5409 5400 5396 5394 5391 5388 5381 5379 5375 5372 5367 5362 5357 5353 5348 5343 5338 5333 5327 5321 5316 5311 5306 5301 5294 5287 5281 5275 5267 5261 5255 5247 5241 5234 5229 5224 5220 5217 5214 5211 5209 5207
5453 5445 5439 5432 5428 5422 5417 5414 5407 5402 5395 5390 5384 5380 5378 5375 5372 5366 5360 5357 5352 5349 5346 5342 5339 5334 5329 5324 5319 5314 5309 5303 5297 5289 5285 5280 5274 5265 5258 5251 5242 5235 5229 5222 5216 5210 5205 5201 5197 5194 5191 5189 5187 5186
5436 5429 5422 5415 5407 5401 5395 5391 5387 5383 5379 5375 5370 5366 5362 5358 5353 5348 5345 5341 5337 5332 5327 5323 5318 5313 5308 5303 5298 5293 5289 5283 5277 5270 5262 5255 5249 5241 5233 5225 5216 5210 5205 5198 5193 5188 5183 5179 5175 5172 5169 5168 5167 5166
5417 5409 5406 5399 5391 5387 5382 5377 5373 5368 5364 5359 5355 5349 5345 5340 5336 5330 5326 5322 5317 5313 5309 5304 5299 5293 5288 5283 5277 5270 5264 5258 5251 5244 5236 5230 5223 5216 5209 5203 5196 5187 5182 5177 5173 5169 5165 5161 5157 5154 5151 5149 5148 5149
5397 5390 5384 5377 5373 5368 5363 5359 5353 5349 5344 5339 5335 5330 5325 5319 5314 5310 5304 5299 5294 5289 5284 5278 5272 5267 5261 5255 5249 5243 5238 5231 5225 5220 5213 5206 5199 5193 5189 5183 5177 5171 5166 5161 5156 5151 5149 5146 5143 5139 5137 5134 5134 5134
5379 5373 5368 5362 5356 5350 5344 5339 5335 5330 5325 5319 5314 5309 5304 5298 5293 5287 5282 5277 5271 5265 5259 5253 5247 5242 5237 5231 5226 5220 5214 5208 5203 5198 5193 5187 5180 5175 5172 5167 5161 5156 5151 5146 5141 5137 5134 5131 5130 5128 5125 5124 5122 5122
5361 5356 5351 5345 5339 5333 5327 5322 5317 5311 5306 5300 5295 5290 5285 5279 5273 5267 5262 5256 5250 5244 5238 5233 5227 5222 5217 5211 5206 5201 5196 5192 5190 5185 5179 5172 5166 5159 5155 5151 5147 5143 5139 5134 5129 5125 5122 5120 5118 5116 5115 5114 5113 5111
5352 5346 5339 5334 5327 5322 5317 5310 5304 5298 5291 5286 5281 5277 5271 5266 5260 5254 5249 5243 5238 5232 5226 5220 5214 5208 5202 5197 5193 5188 5180 5175 5169 5166 5162 5158 5153 5148 5143 5139 5135 5131 5127 5123 5119 5114 5110 5109 5107 5105 5104 5104 5104 5103
5347 5341 5333 5326 5320 5314 5308 5301 5294 5287 5282 5277 5272 5266 5261 5256 5250 5244 5239 5233 5227 5220 5214 5208 5201 5194 5189 5184 5178 5174 5172 5163 5157 5152 5148 5144 5140 5136 5132 5128 5124 5120 5117 5112 5108 5105 5102 5100 5098 5096 5095 5094 5094 5094
5345 5338 5332 5325 5317 5310 5303 5296 5289 5281 5275 5269 5264 5258 5253 5247 5241 5236 5230 5224 5218 5212 5205 5198 5191 5185 5177 5171 5165 5160 5154 5150 5146 5142 5137 5133 5129 5125 5122 5118 5115 5112 5108 5104 5100 5098 5095 5092 5090 5088 5087 5085 5085 5085
5342 5336 5330 5324 5317 5310 5303 5296 5288 5281 5273 5266 5260 5254 5247 5241 5235 5230 5223 5217 5211 5204 5197 5190 5182 5175 5169 5163 5158 5153 5147 5141 5137 5133 5129 5125 5121 5118 5114 5110 5107 5105 5101 5097 5094 5091 5088 5085 5083 5081 5080 5078 5077 5077
Wind_Speed
13 16 20 20 28 29 30 32 38 41 41 43 46 49 51 55 54 53 55 57 59 57 56 54 56 60 64 66 67 69 70 71 73 74 74 72 74 74 72 70 67 68 69 66 66 69 67 67 66 65 67 65 66 66
13 21 25 22 25 30 30 30 33 35 36 38 39 40 42 45 50 54 54 53 55 57 59 62 66 67 69 71 73 75 75 74 73 73 73 74 73 72 70 70 68 68 65 64 64 62 59 66 64 64 64 65 65 67
12 15 18 22 27 28 32 34 37 40 42 44 46 49 50 52 53 54 58 60 62 64 67 69 71 72 74 75 76 74 74 73 72 70 69 69 70 66 67 66 65 64 63 64 61 54 58 56 59 60 62 61 60 58
16 20 23 26 29 32 34 36 39 42 45 46 49 51 53 55 57 59 60 62 65 66 69 70 69 69 73 74 74 72 69 67 66 64 63 63 63 63 62 61 60 57 59 56 56 57 56 57 54 52 51 52 53 54
17 20 22 24 27 30 33 35 38 41 43 46 48 51 53 55 57 59 61 62 64 66 67 66 68 68 66 65 63 61 60 60 59 58 59 59 59 60 57 57 54 54 53 51 48 46 46 46 45 47 50 52 53 52
18 21 23 26 29 33 35 38 41 44 47 49 51 54 56 58 60 61 62 63 65 67 68 67 66 63 59 56 54 53 51 51 52 52 53 53 54 52 51 48 47 45 42 40 40 40 40 40 42 43 45 49 51 52
16 19 22 25 29 32 36 40 44 47 51 55 57 58 60 62 64 66 68 70 72 75 73 69 59 51 46 45 45 46 47 48 48 47 46 45 44 43 41 40 39 36 35 35 36 36 37 39 40 42 44 46 45 45
18 21 24 26 30 33 35 39 43 47 51 54 58 60 61 61 61 62 64 66 68 67 62 58 53 48 46 43 42 42 42 42 41 40 38 37 37 37 37 35 32 31 31 32 33 34 34 34 36 39 41 40 38 41
24 26 29 33 36 38 40 43 48 53 53 54 57 55 54 55 57 58 58 55 52 52 50 45 40 40 39 38 38 38 38 37 37 35 34 34 33 34 32 30 28 29 30 31 32 32 32 32 34 38 39 37 37 37
37 40 42 44 45 46 48 49 51 52 57 59 58 57 55 54 56 55 52 49 45 42 38 36 36 35 35 36 36 36 35 33 31 30 30 31 29 29 28 26 27 26 28 30 29 28 30 31 34 36 38 38 37 36
42 44 45 47 47 46 47 48 48 53 56 57 57 54 51 49 48 48 46 45 45 42 38 35 36 36 34 33 33 34 34 34 33 31 31 30 27 29 25 23 26 27 29 30 30 30 32 34 35 35 36 36 36 38
46 50 51 50 48 47 45 44 49 54 56 56 57 54 50 43 42 43 45 47 46 45 40 36 36 36 34 35 34 33 32 32 31 32 34 33 31 28 29 29 30 31 32 32 32 33 35 38 41 42 41 41 40 41
52 52 50 49 47 45 43 47 52 56 57 58 56 49 43 40 41 44 46 46 48 47 44 39 38 36 35 36 35 35 35 33 33 31 32 31 34 36 35 34 34 37 39 41 41 41 42 42 43 44 43 44 44 45
54 52 49 45 44 43 46 50 55 59 58 58 54 45 42 43 45 47 46 47 49 49 46 41 40 41 38 38 36 37 37 36 35 32 34 36 37 38 40 41 42 44 44 45 43 43 44 44 44 45 44 44 43 44
57 55 51 45 47 48 51 54 58 61 58 55 51 46 45 47 48 49 48 49 50 49 48 44 42 41 39 38 37 37 37 38 37 38 40 40 40 42 44 46 48 48 47 45 45 45 47 47 46 45 46 46 47 47
53 49 51 49 50 53 54 55 59 62 58 53 46 43 48 51 51 50 48 48 48 49 49 46 45 44 41 40 38 38 41 39 40 42 44 45 45 46 46 47 48 50 50 51 52 53 52 50 47 47 47 47 48 49
55 51 53 52 53 54 55 60 63 60 56 50 42 42 49 51 51 51 51 50 50 48 48 48 47 45 46 45 44 44 45 45 47 49 46 46 47 48 49 50 51 52 54 56 58 57 55 53 51 50 49 51 49 50
57 56 58 58 59 59 60 62 65 61 53 47 39 42 50 53 53 50 52 52 51 50 48 47 48 48 46 43 44 46 48 48 49 49 49 50 50 51 53 54 55 57 56 52 50 51 50 50 51 50 50 51 52 53
62 62 62 62 67 67 66 65 67 61 54 49 44 47 51 52 53 53 54 54 51 50 50 51 53 50 44 44 47 50 51 51 49 51 53 52 50 51 49 55 57 55 53 52 56 60 58 58 57 55 54 54 53 51
64 63 63 66 68 69 70 67 68 66 60 55 53 53 56 59 56 53 50 49 49 48 49 51 51 49 48 51 52 51 48 46 48 50 50 48 49 51 53 54 58 59 60 61 63 65 62 58 56 57 58 56 53 50
64 66 68 72 73 69 69 69 67 65 63 62 57 60 63 59 55 50 49 48 47 47 48 47 46 48 48 47 50 48 51 50 52 55 55 57 58 62 65 65 64 60 60 63 66 67 68 70 69 68 67 65 64 63
69 73 73 72 72 70 71 66 65 64 65 63 62 60 60 56 51 45 44 45 46 47 47 46 46 47 46 46 50 52 54 54 57 59 59 59 63 70 71 71 71 72 76 77 72 69 67 66 64 61 58 55 53 51
77 77 75 70 67 69 69 66 66 67 68 65 63 62 59 51 46 44 46 45 44 44 46 47 50 51 54 57 59 61 55 55 62 65 66 69 75 77 77 76 78 83 84 79 73 69 67 65 64 62 60 58 55 53
70 67 65 67 68 69 71 70 67 69 71 65 64 60 54 50 48 49 53 55 58 60 57 54 60 64 64 59 58 60 60 61 68 73 77 80 80 80 81 84 87 83 78 74 70 68 66 65 63 62 59 57 55 52
62 64 67 69 68 64 62 58 54 57 59 60 61 61 62 61 61 62 61 59 56 56 58 62 63 59 58 59 61 62 61 66 75 80 82 82 83 85 86 81 75 71 67 64 62 61 59 58 56 55 53 51 48 46
64 64 62 64 63 59 56 55 55 55 56 58 61 64 65 65 58 57 59 60 60 61 61 63 66 69 72 76 78 80 81 81 80 81 83 83 80 74 68 64 61 61 59 56 54 52 51 50 48 47 46 45 42 39
61 59 57 57 55 54 53 54 56 57 58 60 61 63 66 69 71 75 77 78 78 77 75 74 74 75 76 78 77 77 76 76 74 71 67 65 62 59 55 52 50 50 50 48 48 48 46 45 42 41 40 40 38 36
50 52 53 53 54 55 56 56 57 58 59 61 64 65 67 69 70 71 71 71 70 69 68 67 65 65 64 63 62 62 61 60 58 56 53 52 50 48 45 44 44 43 42 42 42 42 41 39 37 36 35 33 33 32
46 46 45 45 45 45 45 45 46 47 47 48 49 49 49 50 51 50 49 49 48 48 48 48 48 48 48 49 49 50 50 48 45 43 43 43 43 44 43 41 40 39 37 37 37 37 35 33 31 30 29 28 27 27
33 33 33 34 35 36 37 38 39 40 41 41 40 38 37 37 37 37 37 38 39 40 42 42 43 44 46 46 46 47 48 47 46 44 41 39 39 39 39 38 36 36 35 34 33 33 33 28 27 26 25 23 22 22
32 31 31 32 33 33 33 34 35 36 36 35 34 34 33 33 34 35 36 38 39 41 43 43 44 45 45 44 45 43 39 41 42 42 40 38 37 36 35 33 33 33 32 32 32 31 29 26 24 23 23 22 20 19
33 32 32 32 33 34 34 34 34 36 36 36 35 35 35 35 35 36 36 37 38 38 37 38 39 40 42 42 42 41 40 38 36 35 34 34 33 33 32 31 30 29 29 30 30 28 26 23 23 22 21 22 21 20
34 33 33 30 30 30 30 32 32 32 33 33 32 32 33 33 34 34 35 35 36 37 35 34 34 35 35 35 34 33 33 33 32 31 29 29 28 27 26 26 24 23 23 24 25 24 23 22 21 20 20 20 21 20
Wind_Direction
262 266 275 272 268 270 269 271 274 276 275 276 278 279 278 278 279 277 276 278 280 282 283 283 282 285 285 285 285 286 287 289 289 290 290 292 291 292 292 293 292 292 291 292 291 289 290 292 290 292 291 291 292 293
274 261 262 265 278 269 269 273 279 282 282 281 282 284 284 284 281 278 278 278 281 283 282 281 283 285 286 286 287 288 290 291 291 290 291 291 292 291 292 290 290 288 288 287 284 286 289 290 290 291 293 294 294 295
259 265 267 269 269 273 275 278 279 280 281 281 281 281 283 283 282 281 282 283 283 284 284 285 286 287 287 288 288 289 290 291 291 291 291 291 290 291 290 290 289 287 286 285 287 290 287 290 293 295 294 296 300 301
277 278 278 280 281 283 285 287 288 288 288 288 288 288 287 287 286 287 287 288 288 290 290 289 290 290 290 290 290 290 290 291 291 290 289 288 287 288 287 287 286 286 287 288 289 289 293 294 296 297 298 298 298 298
301 297 296 297 296 296 296 294 293 291 291 292 293 292 293 293 293 293 293 294 293 292 292 293 293 294 293 292 292 292 291 290 289 287 286 284 284 285 286 287 288 287 287 289 290 292 292 294 296 296 297 297 297 299
306 302 300 301 299 299 300 301 300 300 299 297 296 295 294 295 295 294 295 295 295 295 295 295 297 296 295 294 292 289 288 287 285 284 284 284 285 286 288 289 290 290 292 292 291 291 291 293 295 297 298 299 302 308
311 309 310 310 310 310 310 309 308 309 306 304 304 303 303 303 302 302 301 302 301 300 301 300 303 300 296 292 288 287 286 285 285 286 286 286 288 289 290 290 292 294 290 290 291 293 295 297 299 299 300 305 309 311
331 327 328 327 328 329 331 332 329 327 321 316 312 309 306 305 304 302 301 299 298 297 299 301 302 299 295 291 288 288 287 287 288 288 287 287 288 288 291 295 294 290 290 290 291 292 295 297 298 301 304 307 312 313
326 326 327 329 330 330 330 331 330 331 328 327 325 321 315 310 306 305 304 304 306 306 308 307 305 301 298 295 293 291 290 289 289 288 287 288 289 290 294 293 292 292 290 290 293 295 297 303 303 304 306 308 310 311
322 323 323 323 323 322 323 325 328 328 328 328 328 326 322 318 314 313 312 315 316 312 308 303 304 308 306 300 297 295 293 292 291 289 287 288 289 289 290 291 287 284 286 289 291 294 297 299 295 296 299 300 299 303
323 325 327 326 324 324 324 326 327 327 328 329 328 328 323 319 312 310 315 317 319 319 311 303 301 303 306 307 306 304 303 300 297 294 291 290 289 289 289 284 280 283 289 292 296 298 298 298 297 296 298 298 293 295
317 318 319 320 319 322 321 324 325 326 331 329 329 328 326 315 310 311 316 318 320 322 314 307 303 303 303 301 301 304 304 304 302 298 293 292 291 291 294 293 291 291 291 293 296 298 298 297 298 301 302 302 302 296
315 316 318 318 316 318 316 324 331 330 329 330 326 324 317 311 308 309 312 315 318 317 314 303 303 303 301 299 300 301 304 309 307 302 299 294 293 295 295 296 299 301 301 301 304 305 305 303 300 299 299 299 300 301
317 318 317 318 316 317 324 324 329 334 328 326 324 319 310 307 307 307 310 315 318 317 311 304 303 305 304 301 302 301 304 306 307 307 302 302 302 300 299 299 297 296 298 299 300 299 297 296 295 294 295 296 296 297
316 318 315 316 315 318 320 321 325 327 325 322 321 317 312 307 307 306 309 314 316 318 314 307 303 305 303 300 300 302 304 306 309 306 306 305 301 297 294 292 293 294 294 295 295 298 299 297 293 290 291 292 294 296
314 310 311 316 318 317 318 320 322 323 321 320 319 313 308 306 307 305 306 308 312 317 313 308 303 301 301 301 301 304 301 305 302 304 303 301 298 295 293 292 292 293 295 295 297 297 297 295 290 288 288 291 293 296
312 308 309 314 313 314 315 317 319 318 317 316 317 311 308 309 307 304 302 303 306 310 310 304 300 300 298 300 304 300 301 302 303 304 303 302 301 297 295 293 293 294 296 297 298 299 298 297 294 289 289 292 296 300
306 302 304 310 310 310 310 312 312 311 313 312 312 308 306 306 305 301 300 301 301 302 303 299 295 294 296 299 296 297 297 299 299 301 302 302 300 298 297 297 297 299 300 299 301 303 303 301 299 297 294 292 294 299
303 302 304 305 308 308 306 305 308 305 306 305 305 301 301 302 301 298 297 297 296 296 295 295 292 297 298 293 294 295 297 297 300 303 304 303 303 302 300 302 302 301 300 296 299 304 306 303 300 297 296 295 295 295
300 303 303 304 302 300 299 299 303 303 305 304 300 299 300 302 300 296 292 290 291 291 289 290 294 296 295 294 294 295 293 298 306 308 302 300 303 306 307 306 304 299 298 298 299 299 300 298 296 296 295 294 292 291
298 298 300 301 296 292 293 296 298 301 301 300 301 300 301 300 297 293 290 291 288 286 288 290 289 288 291 286 288 289 293 298 301 304 304 304 307 308 305 302 304 304 302 301 299 297 296 295 294 293 292 291 290 288
298 297 298 295 289 290 292 297 299 299 297 300 300 300 300 299 296 293 291 289 287 287 288 292 296 295 293 289 292 295 298 293 294 299 301 300 298 302 304 303 302 302 304 305 301 297 294 293 292 291 291 292 292 292
295 293 291 289 291 292 296 297 297 297 297 299 301 300 299 298 293 290 292 291 289 289 292 294 299 300 299 299 298 294 295 288 279 285 290 291 298 302 302 301 300 301 302 301 298 296 294 293 292 291 290 290 289 288
292 292 295 295 295 296 297 297 298 299 301 304 303 301 301 301 300 299 291 296 303 305 303 297 288 289 291 291 287 286 283 279 276 280 285 292 297 298 298 299 300 300 298 296 295 294 293 292 292 291 290 288 287 286
295 295 295 295 296 298 299 299 295 293 292 293 293 295 297 297 294 293 288 283 284 287 290 285 282 280 280 278 277 275 274 279 285 290 294 295 296 297 298 298 297 296 296 295 295 294 294 293 292 292 290 289 287 285
293 293 293 293 292 291 290 287 287 287 286 285 286 286 287 286 281 279 283 286 287 286 284 283 283 283 284 285 285 286 289 291 292 293 293 294 295 296 296 296 296 296 296 296 295 294 293 292 291 290 289 288 287 285
294 294 293 291 290 288 286 285 284 283 282 282 281 281 281 281 281 283 285 288 290 290 290 289 288 288 288 289 290 290 291 291 292 293 294 295 296 297 298 298 297 296 297 297 296 295 294 292 290 288 287 286 286 284
298 297 296 295 294 294 291 291 289 288 287 286 286 285 286 287 287 288 289 290 291 291 291 291 291 292 292 291 292 292 293 294 296 298 300 300 300 299 299 299 299 300 300 300 298 297 296 294 289 285 283 281 282 282
307 307 306 304 304 302 301 300 300 299 298 296 296 296 296 295 295 296 296 297 298 298 298 298 298 298 298 297 297 296 297 298 298 299 299 300 300 301 303 304 304 304 303 303 302 301 299 295 290 284 278 277 279 280
328 324 321 319 316 314 313 312 311 310 308 308 309 309 309 309 309 310 309 308 308 308 307 306 305 304 302 302 303 304 305 305 305 305 304 304 303 302 303 304 305 305 305 306 304 303 303 303 296 290 283 275 271 275
353 351 346 341 337 332 329 326 323 321 320 320 321 320 320 319 317 317 317 316 315 314 313 313 310 308 307 306 305 305 306 305 305 304 305 306 305 305 305 305 305 306 307 307 307 308 308 306 299 293 289 284 280 277
348 350 352 353 351 350 346 341 336 331 331 329 327 326 326 323 321 322 323 324 324 323 320 315 312 312 311 313 315 316 315 313 311 309 308 309 308 307 307 307 307 308 308 308 309 311 311 307 300 295 291 287 284 281
351 350 351 351 349 349 350 351 351 347 342 338 334 332 328 326 326 327 329 330 331 332 331 328 324 322 322 322 323 321 320 319 317 316 316 314 313 312 310 306 304 303 304 305 305 310 312 309 305 301 294 288 286 284